Find Starlink 31395

NORAD ID: 59180 Int'l Des: 2024-045 Owner: SPXS Country: US Constellation: starlink operational
LEOCIRCULAR

Current View

Loading 3D Globe...

About Starlink 31395

Starlink 31395 (NORAD 59180) is a starlink constellation satellite (v2 mini) launched Mar 11, 2024 by SPXS of US. It operates in LEO, CIRCULAR orbit with a mass of 730.00 kg.

Upcoming Passes

Passes for default location (London). Set your location on the main map for personalized predictions.

Altitude History

Loading altitude history...

Two-Line Element Set

1 59180U 24045C 26230.11033228 .00001828 00000-0 75949-4 0 9998
2 59180 43.0006 261.3518 0001401 283.2004 76.8691 15.27576194137846
Epoch: Aug 18, 2026 • Age: 15 hours

Current Status

Altitude 484.5 km
Apogee / Perigee N/A
Velocity 7.63 km/s
Sub-Earth Point 30.31°N, 172.01°E
Launch Date Mar 11, 2024
Age 2.4 years
Type internet

Technical Details

Classification Payload
Mass 730.00 kg
Dry Mass 700.00 kg
Total Mass 730.00 kg
Length 0.30 m
Diameter 4.10 m
Span 29.00 m
Shape Box + pan
Manufacturer SPXS
Bus Type Starlink V2M
Phase Status In Orbit
Owner/State SPXS/US

Most Searched